Location: ?????
(55.6500°N, 37.2500°E)
Time: 04:43:00
(UTC+00:00)

NOSS 3-2 (C) - Pass Details

Date: 19 May 2025
Orbit: 686 x 1523 km, 63.4° (Epoch: 04 June)

Event Time Altitude Azimuth Distance (km) Brightness Sun altitude
Rises 21:07:07 0° 301° (WNW) 3,611 7.0 -14.3°
Reaches altitude 10° 21:09:30 10° 306° (NW) 2,773 6.4 -14.3°
Maximum altitude 21:16:05 62° 26° (NNE) 1,297 4.4 -14.3°
Drops below altitude 10° 21:24:10 10° 107° (ESE) 3,379 6.1 -14.4°
Sets 21:27:20 0° 111° (ESE) 4,452 6.7 -14.4°
